Regional Weather Roundup
Issued by NWS

Home | Current Version | Previous Version | Graphics & Text | Print | Product List | Glossary On
Versions: 1 2 3 4 5 6 7 8 9 10 11 12 13 14 15 16 17 18 19 20 21 22 23 24 25 26 27 28 29 30 31 32 33 34 35 36 37 38 39 40 41 42 43 44 45 46 47 48 49 50
000
ASUS43 KTOP 011908
RWRKS

WEATHER ROUNDUP FOR KANSAS
NATIONAL WEATHER SERVICE GOODLAND KS
100 PM CST WED MAR 01 2017

NOTE:  "FAIR" INDICATES FEW OR NO CLOUDS BELOW 12,000 FEET WITH NO
SIGNIFICANT WEATHER AND/OR OBSTRUCTIONS TO VISIBILITY.

KSZ001>006-013>018-027>032-041>047-012000-
NORTHWEST KANSAS

CITY           SKY/WX    TMP DP  RH WIND       PRES   REMARKS
GOODLAND       SUNNY     44   6  21 NW30G39   30.22S
HAYS           SUNNY     51  11  20 NW21G32   30.22S
HILL CITY      SUNNY     50   8  18 NW20G35   30.23F
RUSSELL        SUNNY     51  13  21 NW24G33   30.21R
$$

KSZ061>065-074>080-084>089-012000-
SOUTHWEST KANSAS

CITY           SKY/WX    TMP DP  RH WIND       PRES   REMARKS
DODGE CITY     SUNNY     52   3  13 NW20G31   30.26S
ELKHART          N/A     46   8  21 N8          N/A
GARDEN CITY    SUNNY     49   3  15 N23G36    30.27F
LIBERAL        SUNNY     50   9  18 N18G28    30.30F
PRATT          SUNNY     51   8  18 NW20G30   30.23F
$$

KSZ066>073-081>083-090>101-012000-
SOUTHEAST KANSAS

CITY           SKY/WX    TMP DP  RH WIND       PRES   REMARKS
CHANUTE        SUNNY     53  21  28 NW18      30.17S
COFFEYVILLE    SUNNY     55  22  27 NW15G25   30.19F
HUTCHINSON     SUNNY     55  16  21 W17G23    30.21F
NEWTON         SUNNY     52  19  27 NW16G23   30.20F
PARSONS        SUNNY     55  21  26 NW18G26   30.19F
WICHITA INTL   SUNNY     54  17  23 NW15      30.21F
WICHITA JABRA  SUNNY     53  18  25 NW16G22   30.20F
WICHITA MCCONL SUNNY     53  15  22 NW15G22   30.21F
WINFIELD       SUNNY     54  19  25 NW16      30.24S
$$

KSZ007>012-019>026-033>040-048>060-102>105-012000-
NORTHEAST KANSAS

CITY           SKY/WX    TMP DP  RH WIND       PRES   REMARKS
CONCORDIA      SUNNY     48  23  37 NW24      30.18S
EMPORIA        SUNNY     51  20  29 NW15      30.17S
LAWRENCE       SUNNY     51  25  36 W22G30    30.13S
MANHATTAN      SUNNY     50  23  34 NW13G22   30.18S
MARYSVILLE     SUNNY     46  27  46 NW17G25   30.15S
OLATHE IND     SUNNY     50  23  34 NW22G29   30.12S
OLATHE EXE     SUNNY     49  25  39 NW16G26   30.11S
SALINA         SUNNY     54  19  25 W20G28    30.20S
TOPEKA BILLARD SUNNY     50  26  39 NW18G28   30.14S
TOPEKA FORBES  SUNNY     52  25  35 NW21G28   30.15R
$$



USA.gov is the U.S. government's official web portal to all federal, state and local government web resources and services.